EW1071 Weather Reports


Display with metric or nautical units.
time (UTC)temp
F
wind
direction
speed
MPH
gust
MPH
rain 1hr
in
rain 24hr
in
rain mn
in
humidity
%
barometer
mb
20260901063056 58 134 0.0 0.0 0.00 0.01 0.01 81 1021.6
20260901061558 56 134 1.0 5.0 0.00 0.01 0.01 85 1021.8
20260901060053 56 130 0.0 5.0 0.00 0.01 0.01 84 1021.8
20260901054551 56 130 1.0 4.0 0.00 0.01 0.01 84 1021.6
20260901053105 56 130 0.0 5.0 0.00 0.01 0.01 86 1021.3
20260901051548 54 126 1.0 4.0 0.00 0.01 0.01 88 1021.1
20260901050044 53 126 0.0 4.0 0.00 0.01 0.01 89 1020.6
20260901044609 53 125 0.0 2.0 0.00 0.02 0.01 89 1020.1
20260901043042 53 125 0.0 2.0 0.00 0.02 0.01 89 1020.0
20260901041539 52 126 0.0 2.0 0.00 0.02 0.01 89 1019.9
20260901040037 53 125 0.0 0.0 0.00 0.02 0.01 89 1019.6
20260901034543 53 126 1.0 4.0 0.00 0.04 0.01 90 1019.4
20260901033041 53 126 0.0 7.0 0.00 0.04 0.01 89 1019.4
20260901031539 53 128 0.0 5.0 0.00 0.04 0.01 90 1019.1
20260901030131 53 128 0.0 3.0 0.00 0.04 0.01 90 1019.0
20260901024530 53 128 0.0 0.0 0.00 0.05 0.01 90 1019.0
20260901023028 53 128 0.0 3.0 0.00 0.05 0.01 90 1018.9
20260901021536 54 129 3.0 11.0 0.00 0.05 0.01 90 1018.5
20260901020049 53 155 0.0 7.0 0.00 0.05 0.01 91 1018.5
20260901014525 54 173 0.0 0.0 0.00 0.06 0.01 91 1018.4
20260901013025 53 173 0.0 4.0 0.00 0.06 0.01 92 1018.2
20260901011535 53 173 0.0 0.0 0.00 0.06 0.01 92 1018.1
20260901010023 54 173 0.0 4.0 0.00 0.06 0.01 92 1018.1
20260901004522 53 173 2.0 7.0 0.00 0.08 0.01 92 1018.2
20260901003022 54 177 0.0 0.0 0.00 0.08 0.01 92 1018.1
20260901001526 54 177 0.0 4.0 0.00 0.08 0.01 92 1017.8
20260901000022 54 177 0.0 4.0 0.00 0.08 0.01 92 1017.9
20260831234520 54 177 0.0 7.0 0.00 0.08 0.01 92 1018.0
20260831233033 53 177 0.0 4.0 0.00 0.08 0.01 92 1018.1
20260831231517 54 177 0.0 0.0 0.00 0.08 0.01 92 1018.1
20260831230017 54 177 0.0 2.0 0.00 0.08 0.01 92 1018.2
20260831224515 54 177 0.0 0.0 0.01 0.08 0.01 92 1018.3
20260831223014 54 177 0.0 3.0 0.01 0.08 0.01 92 1018.4
20260831221514 54 177 0.0 3.0 0.01 0.08 0.01 92 1018.5
20260831220010 55 177 0.0 2.0 0.01 0.08 0.01 91 1018.5
20260831214515 55 177 0.0 3.0 0.00 0.07 0.00 90 1018.8
20260831213006 55 177 0.0 11.0 0.00 0.07 0.00 90 1018.9
20260831211504 56 108 0.0 4.0 0.00 0.07 0.00 89 1019.0
20260831210045 56 108 2.0 7.0 0.00 0.07 0.00 89 1018.9
20260831204535 56 107 0.0 2.0 0.00 0.07 0.07 89 1019.1
20260831203035 56 107 0.0 0.0 0.00 0.07 0.07 89 1019.2
20260831201637 56 107 0.0 1.0 0.00 0.07 0.07 89 1019.1
20260831200040 56 107 0.0 1.0 0.00 0.07 0.07 89 1019.1
20260831194522 56 107 1.0 7.0 0.00 0.07 0.07 89 1019.1
20260831193010 55 107 0.0 7.0 0.00 0.07 0.07 89 1019.1
20260831191511 55 106 0.0 4.0 0.00 0.07 0.07 88 1019.0
20260831190010 55 107 0.0 4.0 0.00 0.07 0.07 88 1019.1
20260831184518 56 105 2.0 8.0 0.00 0.07 0.07 88 1018.9
20260831183109 55 108 2.0 7.0 0.00 0.07 0.07 88 1018.6
20260831181515 55 49 1.0 4.0 0.00 0.07 0.07 88 1018.5
20260831180008 55 49 0.0 3.0 0.00 0.07 0.07 87 1018.5
20260831174507 55 49 0.0 6.0 0.00 0.07 0.07 87 1018.6
20260831173005 54 89 1.0 6.0 0.00 0.07 0.07 86 1018.3
20260831171506 55 107 2.0 6.0 0.00 0.07 0.07 85 1018.2
20260831170004 56 110 2.0 8.0 0.00 0.07 0.07 84 1018.1
20260831164603 56 113 2.0 12.0 0.00 0.07 0.07 84 1018.0
20260831163004 56 100 4.0 9.0 0.00 0.07 0.07 83 1018.0
20260831161506 57 56 0.0 9.0 0.00 0.07 0.07 82 1017.8
20260831160002 57 49 0.0 5.0 0.00 0.07 0.07 81 1017.9
20260831154502 58 49 1.0 4.0 0.00 0.07 0.07 79 1017.8
20260831153002 59 49 0.0 4.0 0.00 0.07 0.07 77 1017.6
20260831151605 60 47 0.0 0.0 0.00 0.07 0.07 75 1017.4
20260831150059 61 47 0.0 0.0 0.00 0.07 0.07 76 1017.3
20260831144614 60 48 0.0 0.0 0.00 0.07 0.07 78 1017.2
20260831143056 59 49 0.0 3.0 0.00 0.07 0.07 80 1017.1
20260831141557 59 50 0.0 6.0 0.00 0.07 0.07 80 1017.2
20260831140032 59 55 0.0 3.0 0.00 0.07 0.07 79 1017.1
20260831134531 59 57 0.0 5.0 0.00 0.07 0.07 80 1017.1
20260831133031 59 87 0.0 0.0 0.00 0.07 0.07 79 1017.2
20260831131530 59 87 0.0 6.0 0.00 0.07 0.07 80 1017.0
20260831130029 59 105 0.0 6.0 0.00 0.07 0.07 79 1017.0
20260831124529 60 107 1.0 6.0 0.00 0.07 0.07 79 1017.1
20260831123027 59 108 0.0 9.0 0.00 0.07 0.07 79 1017.0
20260831121533 58 106 0.0 7.0 0.00 0.07 0.07 82 1017.2
20260831120024 58 112 1.0 4.0 0.00 0.07 0.07 82 1017.4
20260831114528 58 174 0.0 4.0 0.00 0.07 0.07 84 1017.5
20260831113020 57 143 0.0 11.0 0.00 0.07 0.07 84 1017.6
20260831111518 57 119 0.0 4.0 0.00 0.07 0.07 86 1017.8
20260831110015 56 117 0.0 14.0 0.00 0.07 0.07 90 1018.0
20260831104514 56 120 0.0 3.0 0.00 0.07 0.07 93 1018.2
20260831103013 55 119 0.0 6.0 0.00 0.07 0.07 92 1018.3
20260831101515 55 118 1.0 9.0 0.00 0.07 0.07 92 1018.4
20260831100014 55 117 0.0 8.0 0.00 0.07 0.07 93 1018.4
20260831094518 55 115 0.0 0.0 0.00 0.07 0.07 94 1018.6
20260831093010 53 133 1.0 8.0 0.00 0.07 0.07 95 1018.8
20260831091510 53 34 1.0 6.0 0.00 0.07 0.07 95 1019.0
20260831090014 53 355 0.0 4.0 0.00 0.07 0.07 95 1019.2
20260831084513 53 292 1.0 9.0 0.00 0.07 0.07 95 1019.4
20260831083009 53 287 0.0 7.0 0.00 0.07 0.07 95 1019.5
20260831081517 52 290 0.0 4.0 0.00 0.07 0.07 95 1019.6
20260831080005 52 290 0.0 10.0 0.00 0.07 0.07 95 1019.6
20260831074545 52 230 0.0 4.0 0.00 0.07 0.07 95 1019.5
20260831073109 52 229 0.0 6.0 0.00 0.07 0.07 95 1019.5
20260831071539 52 229 0.0 6.0 0.00 0.07 0.07 95 1019.6
20260831070040 51 230 2.0 7.0 0.00 0.07 0.07 95 1019.4
20260831064540 51 227 1.0 6.0 0.00 0.07 0.07 95 1019.2